NIMBUS 2 DEB, 40646

Orbit data source: Space-Track

NIMBUS 2 DEB, 40646 is space debris in SSO originally from a launch on Sun, 15 May 1966 UTC launched from the Air Force Western Test Range (AFWTR). Debris objects in space refer to the collection of defunct objects orbiting the Earth. Examples of debris include non-operational satellites, rocket bodies, and fragments generated from explosions, collisions, or faulty payload assembly.

Loading next visibility...
Identifier
40646, 1966-040BK
Orbit
SSO
Country
Flag of USUS
Related business
Manufacturer
Unknown
Mission
Spacecraft
Bus & Motor
Unknown
Mass
Unknown
Launch date (UTC)
1966-05-15 (60 years ago)
Launch vehicle
Unknown
Launch site
Air Force Western Test Range (AFWTR)
Object type
Payload
Rocket body
Debris
Shape & HBR
Unknown shape, 0.1 m
Radar Cross Section
Small (<0.1 m²)

Expand to show TLE details & history
Last TLE update: 4 days ago

TLE from 4 days ago
0 NIMBUS 2 DEB
1 40646U 66040BK  26259.16075976  .00001374  00000-0  22389-2 0  9992
2 40646 100.3691 156.4103 0048042 272.7626  86.8008 13.49483811556246
Epoch: 2026-09-16T03:51Z
TLE epoch observation values (Epoch: 2026-09-16T03:51:29.643Z)
Latitude
0.00004°
Longitude
103.42045°
Altitude
1,075.093 km
Speed
7.315 km/s
True Right ascension
10h 25m 38s
True Declination
0° 00' 00"
Sunlit
Object was in daylight at epoch
Visualization orbit readout
Latitude
Unknown
Longitude
Unknown
Altitude
Unknown
Speed
Unknown
Apparent Right ascension
Unknown
Apparent Declination
Unknown
Sunlit
N/A
Visualization observer readout
Local Sidereal Time
18:21:27
Azimuth
Unknown
Elevation
Unknown
Doppler factor
Unknown
Orbital elements
Apogee altitude
1,107.285 km
Perigee altitude
1,035.706 km
Semi-major axis
7,449.633 km
Eccentricity
0.0048
Inclination
100.3691°
RAAN
156.4103°
Arg. of periapsis
272.7626°
True anomaly
87.35064°
Mean anomaly
86.8008°
Eccentric anomaly
87.0757°
Mean motion
3.37552 °/min
Orbital period
106.65 mins
BSTAR
0.0022389
Loading maneuver chart data...
Computing Atmospheric mass density...
Loading historical data...
Loading historical data...
Loading historical data...
Loading historical data...
Loading historical data...
Loading historical data...
Loading historical data...

Documentation

Showing up to 5 results
|